weather.gov     
National Weather Service

Regional Weather Roundup
NWS Homepage
This page is being discontinued on March 12, 2014.
The same data is available at this site. Please update your bookmarks.
Thank you, and we apologize for the inconvenience.
Please send an email to SR-SRH.Webmaster@noaa.gov with any concerns.


Current Version
Previous Version:    01  02  03  04  05  06  07  08  09  10  11  12  13  14  15  16  17  18  19  20  21  22  23  24  25  26  27  28  29  30  
   31  32  33  34  35  36  37  38  39  40  41  42  43  44  45  46  47  48  49  50  51  52  53  54  55  56  57  58  59  60  
[Printable]
556
ASUS46 KSTO 281109
RWRCA

NORTHERN AND CENTRAL CA REGIONAL WEATHER ROUNDUP
NATIONAL WEATHER SERVICE SACRAMENTO CA
400 AM PDT THU AUG 28 2014

NOTE: FAIR INDICATES FEW OR NO CLOUDS BELOW 12,000 FEET WITH NO
SIGNIFICANT WEATHER AND/OR OBSTRUCTIONS TO VISIBILITY.

CAZ001-003-281200-
NORTHWEST AREA

CITY           SKY/WX    TMP DP  RH WIND       PRES   REMARKS
CRESCENT CITY  FOG       55  55 100 S7        30.06S VSB 1/2
ARCATA         NOT AVBL
SHELTER COVE   NOT AVBL
UKIAH          CLEAR     61  52  72 CALM      30.04S
$$

CAZ006-505>513-281200-
BAY AREA

CITY           SKY/WX    TMP DP  RH WIND       PRES   REMARKS
SANTA ROSA     CLOUDY    57  55  93 CALM      30.05S
SAN RAFAEL     N/A       59  MM  MM MISG
NAPA           CLOUDY    56  56 100 W6        30.05S
CONCORD        CLEAR     60  54  80 NW3       30.03S
OAKLAND CITY   N/A       61  MM  MM MISG
OAKLAND        MOCLDY    61  57  87 NW7       30.06S
SAN FRAN CITY  N/A       59  MM  94 MISG
SAN FRAN ARPT  PTCLDY    59  58  96 W12       30.06S
LIVERMORE      CLEAR     62  54  74 W5        30.03F
HAYWARD        CLOUDY    63  60  90 NW3       30.05F
REDWOOD CITY   N/A       MM  MM  MM MISG
MOFFETT ARPT   CLOUDY    62  58  86 W3        30.06S
SAN JOSE ARPT  CLEAR     61  58  90 CALM      30.05S
$$
CAZ034-037-514>518-281200-
CENTRAL COAST

CITY           SKY/WX    TMP DP  RH WIND       PRES   REMARKS
WATSONVILLE    CLOUDY    64  57  78 CALM      30.06F
SALINAS        CLOUDY    60  56  86 S5        30.06F
MONTEREY       CLOUDY    60  56  86 CALM      30.07F
PT PIEDRAS BLS NOT AVBL
SAN LUIS OBISP PTCLDY    59  57  93 NW3       30.04F
SANTA MARIA    CLOUDY    64  59  83 CALM      30.04F
$$
CAZ015-016-281200-
NORTHERN SACRAMENTO VALLEY

CITY           SKY/WX    TMP DP  RH WIND       PRES   REMARKS
REDDING        CLEAR     69  56  62 CALM      30.01R
RED BLUFF      CLEAR     71  55  56 NW8       30.01R
OROVILLE       CLEAR     70  51  51 SE5       30.01R
$$
CAZ016>018-281200-
SOUTHERN SACRAMENTO VALLEY

CITY           SKY/WX    TMP DP  RH WIND       PRES   REMARKS
AUBURN         CLEAR     72  48  43 E9        30.06S
LINCOLN        FAIR      68  50  52 S8        29.98F
MARYSVILLE     CLEAR     67  53  61 S8        29.99S
SAC INTL ARPT  CLEAR     65  54  67 S10       29.99S
MATHER AIRPORT CLEAR     63  50  63 SE5       30.01
DOWNTOWN SAC   N/A       67  MM  MM MISG
SAC EXEC ARPT  CLEAR     66  54  65 S5        30.00S
VACAVILLE      CLEAR     63  52  67 SW9       29.99S
TRAVIS AFB     CLEAR     61  59  93 SW22      29.97F
$$
CAZ019>021-281200-
SAN JOAQUIN VALLEY

CITY           SKY/WX    TMP DP  RH WIND       PRES   REMARKS
STOCKTON       CLEAR     65  53  65 NE3       29.99F
MODESTO        CLEAR     70  50  49 NW5       29.99F
MERCED         CLEAR     74  49  41 W5        29.98F
LEMOORE        CLEAR     63  39  41 N6        30.00S
FRESNO         CLEAR     73  52  47 CALM      30.00F
HANFORD        CLEAR     64  51  62 CALM      30.00S
PORTERVILLE    CLEAR     64  45  48 SE7       30.02S
BAKERSFIELD    CLEAR     76  38  25 SE6       30.01S
$$
CAZ011-012-071-281200-
NORTHERN MOUNTAINS

CITY           SKY/WX    TMP DP  RH WIND       PRES   REMARKS
YREKA          PTCLDY    60  33  36 CALM      30.12S
MOUNT SHASTA   CLEAR     54  46  74 CALM      30.18S
ALTURAS        CLEAR     55  39  54 CALM      30.22S
$$
CAZ011-012-071-281200-
SIERRA NEVADA MTNS

CITY           SKY/WX    TMP DP  RH WIND       PRES   REMARKS
BLUE CANYON    CLEAR     66  42  41 E3        30.29F
TRUCKEE        CLEAR     43  43 100 CALM      30.33F
TAHOE VLY ARPT CLEAR     48  41  76 CALM      30.34F
MAMMOTH LAKES  FAIR      48  28  46 NW3       30.40S
$$





U.S. Dept. of Commerce
NOAA National Weather Service
1325 East West Highway
Silver Spring, MD 20910
E-mail: w-nws.webmaster@noaa.gov
Page last modified: May 16, 2007
NATIONAL WEATHER SERVICE: for Safety, for Work, for Fun - FOR LIFE